Regional Weather Roundup
Issued by NWS

Home | Current Version | Previous Version | Text Only | Print | Product List | Glossary Off
Versions: 1 2 3 4 5 6 7 8 9 10 11 12 13 14 15 16 17 18 19 20 21 22 23 24 25 26 27 28 29 30 31 32 33 34 35 36 37 38 39 40 41 42 43 44 45 46 47 48 49 50

000
ASUS43 KLOT 230406
RWRIL

ILLINOIS REGIONAL WEATHER ROUNDUP
NATIONAL WEATHER SERVICE CHICAGO/ROMEOVILLE IL
1000 PM CST SAT NOV 22 2014

NOTE: "FAIR" INDICATES FEW OR NO CLOUDS BELOW 12,000 FEET WITH NO
SIGNIFICANT WEATHER AND/OR OBSTRUCTIONS TO VISIBILITY.

* THESE STATIONS ARE NOT UNDER NWS QUALITY CONTROL. THEY ALSO MAY NOT
  REPORT WEATHER SUCH AS PRECIPITATION OR FOG.

ILZ001-002-007-009-015-016-024-230500-
NORTHWEST ILLINOIS

CITY           SKY/WX    TMP DP  RH WIND       PRES   REMARKS
MOLINE         CLEAR     50  46  86 S13       29.77F
STERLING*      MOCLDY    50  45  81 S8        29.81S
SAVANNA*       CLOUDY    52  48  86 S13       29.77S
$$

ILZ003-004-008-010-011-017-018-230500-
NORTH CENTRAL ILLINOIS

CITY           SKY/WX    TMP DP  RH WIND       PRES   REMARKS
ROCKFORD       CLOUDY    49  45  86 S12       29.82F
FREEPORT*      CLOUDY    49  46  91 S13       29.80S
ROCHELLE*      CLOUDY    48  46  90 S16       29.82F
DE KALB*       CLOUDY    47  45  91 S15       29.84S
PERU*          PTCLDY    51  46  84 S13       29.84F
$$

ILZ005-006-012>014-019>023-230500-
NORTHEAST ILLINOIS

CITY           SKY/WX    TMP DP  RH WIND       PRES   REMARKS
CHICAGO-OHARE  CLOUDY    51  46  83 SW16G25   29.84F
CHICAGO-MIDWAY CLOUDY    53  47  79 SW13      29.87F
AURORA         CLOUDY    52  46  80 S15G23    29.85S
LANSING*       CLOUDY    51  46  83 SW16      29.90R
JOLIET*        CLOUDY    52  46  82 S10G16    29.87F
WAUKEGAN       CLOUDY    50  45  83 SW18      29.82F
DUPAGE AIRPORT CLOUDY    50  46  86 S14       29.84F
KANKAKEE*      CLOUDY    50  46  86 S13       29.90F
WHEELING       MOCLDY    51  46  83 S14       29.86S
MORRIS*        CLOUDY    53  48  85 S14G23    29.85F
ROMEOVILLE*    CLOUDY    52  46  81 SW14G22   29.86F
NORTHERLY ISL    N/A     52  45  77 S14         N/A
$$

LMZ740>746-230500-
SOUTHERN LAKE MICHIGAN

STATION/POSITION SKY/WX   TEMP    WIND        PRES    VSBY  WAVE
                          AIR SEA DIR/SP/G                  HT/PER
                          (F)     (DEG/KT/KT) (MB)    (MI)  (FT/S)
SOUTHERN BUOY              46 42  190/ 14/ 16 1010.9R         2/ 4
WAUKEGAN HARBOR            52     220/ 16/ 22   N/A
HARRISON CRIB              51     210/ 24/ 30   N/A
BURNHAM HARBOR             53     210/ 14/ 16   N/A
CALUMET HARBOR             52     200/ 12/ 19 1010.7F
MICHIGAN CITY              53     190/ 18/ 24   N/A
$$

ILZ025>027-034>036-040-047-049-050-058-095>099-230500-
WEST-CENTRAL ILLINOIS

CITY           SKY/WX    TMP DP  RH WIND       PRES   REMARKS
QUINCY         CLOUDY    53  49  86 S16       29.80F
GALESBURG*     PTCLDY    49  46  90 S10       29.80F
MACOMB*        CLOUDY    52  48  87 S15G21    29.83F
JACKSONVILLE*  CLOUDY    54  50  87 S13       29.86S
PITTSFIELD*    CLOUDY    54  50  86 S10G18    29.85F
$$

ILZ028>032-037-038-041>044-048-051>054-059>061-230500-
CENTRAL ILLINOIS

CITY           SKY/WX    TMP DP  RH WIND       PRES   REMARKS
PONTIAC        CLOUDY    52  48  88 S16G22    29.88F
BLOOMINGTON    CLOUDY    50  47  89 S16       29.88F
DECATUR        LGT RAIN  51  49  92 S17       29.92S FOG
PEORIA         CLOUDY    53  47  79 S14G22    29.84F
LACON*         CLOUDY    52  47  82 S14G23    29.83F
LINCOLN*       CLOUDY    53  49  84 S13       29.87F
SPRINGFIELD    CLOUDY    53  49  86 S18G30    29.88F
TAYLORVILLE    RAIN      50  46  87 S12       29.91F
$$

ILZ033-039-045-046-055>057-062-063-230500-
EAST-CENTRAL ILLINOIS

CITY           SKY/WX    TMP DP  RH WIND       PRES   REMARKS
CHAMPAIGN      LGT RAIN  50  47  89 S16       29.93F
DANVILLE*      RAIN      49  46  90 S14       29.93F
RANTOUL*       CLOUDY    51  47  87 S13       29.91F
MATTOON        LGT RAIN  50  46  86 S10       29.95F
PARIS*         RAIN      50  46  86 S13       29.98F
$$

ILZ079-100>102-230500-
SOUTHWEST ILLINOIS

CITY           SKY/WX    TMP DP  RH WIND       PRES   REMARKS
ALTON          CLOUDY    52  49  91 S7        29.91F
BELLEVILLE     CLOUDY    52  52  99 SE7       29.91F
CAHOKIA*       CLOUDY    53  50  89 S5        29.90F
SPARTA*        CLOUDY    55  43  63 S15       29.94S
$$

ILZ064>066-069>071-074>076-080>082-084>086-088>090-092>094-230500-
SOUTH-CENTRAL ILLINOIS

CITY           SKY/WX    TMP DP  RH WIND       PRES   REMARKS
CARBONDALE     CLOUDY    57  38  48 S14       29.96F
CAIRO*         CLEAR     57  38  50 S6        29.99F
EFFINGHAM*     CLOUDY    49  45  84 SE6       29.95F
MARION         MOCLDY    59  39  47 S13       29.97F
MT. VERNON     CLOUDY    55  39  54 S9        29.96S
CENTRALIA*     CLOUDY    53  42  66 S8        29.93F
SALEM*           N/A     55  45  67 SE3       29.94F
METROPOLIS*    MOCLDY    55  39  55 CALM      29.99F
$$

ILZ067-068-072-073-078-083-087-091-230500-
SOUTHEAST ILLINOIS

CITY           SKY/WX    TMP DP  RH WIND       PRES   REMARKS
LAWRENCEVILLE  CLOUDY    51  41  68 S8        29.99F
FLORA*         CLOUDY    51  43  72 S8        29.96F
FAIRFIELD*     CLOUDY    54  41  62 S7        29.96S
HARRISBURG*    MOCLDY    58  37  45 S10       29.99F
ROBINSON*      CLOUDY    54  40  57 S7        29.99F
CARMI*         CLOUDY    52  41  67 S8        29.99S
$$

ABBREVIATIONS USED IN REMARKS
   TC - TEMPERATURE IN CELSIUS
  WCI - WIND CHILL INDEX
   HX - HEAT INDEX
  VSB - VISIBILITY
$$




USA.gov is the U.S. government's official web portal to all federal, state and local government web resources and services.